This demonstration page uses our WeatherBlox Daily Observations layout. Learn more.

Left ArrowRight Arrow

40.92945, -100.16068

Hourly Observations for April 2, 2021

Temp ( °F °C ) Dew Point ( °F °C ) Humidity (%) Winds ( mph kmh ) Pressure ( in mb ) Visibility ( mi km ) Precip ( " mm )
12:15 am 00:15 Clear 47 8.1 29 -1.5 51 51 SSE 14 22 30.14 1021 10 16 N/A
12:35 am 00:35 Clear 45 7.4 29 -1.5 54 54 SSE 14 22 30.14 1021 10 16 N/A
12:55 am 00:55 Clear 44 6.9 30 -1.3 56 56 SSE 14 22 30.14 1021 10 16 N/A
1:15 am 01:15 Clear 44 6.8 30 -1.2 57 57 SSE 17 28 30.13 1020 10 16 N/A
1:35 am 01:35 Clear 44 6.5 30 -1.1 59 59 SSE 16 26 30.13 1020 10 16 N/A
1:55 am 01:55 Clear 43 6.2 30 -1 60 60 S 15 24 30.13 1020 10 16 N/A
2:15 am 02:15 Clear 43 6.3 30 -1 60 60 SSE 16 26 30.12 1020 10 16 N/A
2:35 am 02:35 Clear 43 6.2 30 -1 60 60 SSE 14 22 30.12 1020 10 16 N/A
2:55 am 02:55 Clear 43 6.2 30 -1 60 60 SSE 10 17 30.11 1020 10 16 N/A
3:15 am 03:15 Clear 43 6.1 30 -1 61 61 SSE 12 19 30.11 1020 10 16 N/A
3:35 am 03:35 Clear 43 6 30 -1 61 61 SSE 12 19 30.10 1019 10 16 N/A
3:55 am 03:55 Clear 42 5.7 30 -1 62 62 SSE 14 22 30.09 1019 10 16 N/A
4:15 am 04:15 Clear 42 5.6 30 -1 63 63 S 12 19 30.09 1019 10 16 N/A
4:35 am 04:35 Clear 43 6 30 -1.1 61 61 S 14 22 30.08 1019 10 16 N/A
4:55 am 04:55 Clear 43 6 30 -1.2 60 60 S 13 20 30.08 1019 10 16 N/A
5:15 am 05:15 Clear 42 5.8 30 -1.3 61 61 S 13 20 30.07 1018 10 16 N/A
5:35 am 05:35 Clear 42 5.6 29 -1.5 61 61 SSE 9 15 30.07 1018 10 16 N/A
5:55 am 05:55 Clear 42 5.6 29 -1.7 60 60 S 9 15 30.07 1018 10 16 N/A
6:15 am 06:15 Clear 42 5.7 28 -2 58 58 S 13 20 30.07 1018 10 16 N/A
6:35 am 06:35 Clear 42 5.6 28 -2 58 58 S 13 20 30.06 1018 10 16 N/A
6:55 am 06:55 Clear 42 5.5 28 -2.3 58 58 S 10 17 30.06 1018 10 16 N/A
7:15 am 07:15 Clear 42 5.5 28 -2.5 57 57 SSE 7 11 30.07 1018 10 16 N/A
7:35 am 07:35 Sunny 41 5.2 27 -2.6 57 57 S 10 17 30.08 1018 10 16 N/A
7:55 am 07:55 Hazy 42 5.4 28 -2.4 58 58 SE 5 7 30.08 1019 5 8 N/A
8:15 am 08:15 Sunny 43 6 28 -2.2 56 56 S 7 11 30.08 1019 10 16 N/A
8:35 am 08:35 Sunny 44 6.5 29 -1.6 57 57 S 6 9 30.07 1018 10 16 N/A
8:55 am 08:55 Sunny 45 7.4 29 -1.6 53 53 SSW 9 15 30.08 1018 10 16 N/A
9:15 am 09:15 Sunny 47 8.3 28 -2.2 48 48 S 12 19 30.06 1018 10 16 N/A
9:35 am 09:35 Sunny 48 9.1 27 -2.6 44 44 S 13 20 30.05 1018 10 16 N/A
9:55 am 09:55 Sunny 49 9.4 28 -2.5 44 44 SSW 13 20 30.05 1017 10 16 N/A
10:15 am 10:15 Sunny 51 10.5 29 -1.9 42 42 SSW 9 15 30.04 1017 10 16 N/A
10:35 am 10:35 Sunny 52 10.9 28 -2.1 41 41 SSW 16 26 30.02 1017 10 16 N/A
10:55 am 10:55 Sunny 53 11.7 30 -1.3 41 41 SSW 14 22 30.02 1016 10 16 N/A
11:15 am 11:15 Sunny 54 12.3 30 -1.3 39 39 S 14 22 30.00 1016 10 16 N/A
11:35 am 11:35 Sunny 56 13.6 31 -0.8 37 37 SSW 12 19 29.99 1016 10 16 N/A
11:55 am 11:55 Sunny 58 14.3 30 -0.9 35 35 SSW 12 19 29.97 1015 10 16 N/A
12:15 pm 12:15 Sunny 59 15.1 31 -0.8 34 34 SSW 13 20 29.97 1015 10 16 N/A
12:35 pm 12:35 Sunny 61 16.3 32 undefined 33 33 SSW 12 19 29.95 1014 10 16 N/A
12:55 pm 12:55 Sunny 63 17.1 31 -0.3 31 31 SSW 10 17 29.94 1014 10 16 N/A
1:15 pm 13:15 Sunny 65 18.1 32 0.1 30 30 S 16 26 29.92 1013 10 16 N/A
1:35 pm 13:35 Sunny 66 18.9 32 -0.2 28 28 S 20 31 29.90 1013 10 16 N/A
1:55 pm 13:55 Sunny 68 19.8 31 -0.3 26 26 SSW 17 28 29.89 1012 10 16 N/A
2:15 pm 14:15 Sunny 69 20.7 33 0.6 26 26 SSW 17 28 29.88 1012 10 16 N/A
2:35 pm 14:35 Sunny 70 21 32 -0.2 24 24 S 16 26 29.87 1012 10 16 N/A
2:55 pm 14:55 Sunny 71 21.6 32 -0.2 23 23 SW 17 28 29.87 1011 10 16 N/A
3:15 pm 15:15 Sunny 71 21.7 31 -0.5 23 23 SW 15 24 29.86 1011 10 16 N/A
3:35 pm 15:35 Sunny 73 22.5 32 -0.2 22 22 SSW 14 22 29.85 1011 10 16 N/A
3:55 pm 15:55 Sunny 73 23 32 undefined 22 22 S 20 31 29.83 1010 10 16 N/A
4:15 pm 16:15 Sunny 74 23.2 32 undefined 22 22 S 21 33 29.82 1010 10 16 N/A
4:35 pm 16:35 Sunny 74 23.4 32 -0.2 21 21 S 21 33 29.81 1010 10 16 N/A
4:55 pm 16:55 Sunny 74 23.5 32 -0.2 21 21 S 18 30 29.80 1009 10 16 N/A
5:15 pm 17:15 Sunny 74 23.6 31 -0.3 21 21 S 22 35 29.80 1009 10 16 N/A
5:35 pm 17:35 Sunny 74 23.6 31 -0.6 20 20 SSW 18 30 29.80 1009 10 16 N/A
5:55 pm 17:55 Sunny 74 23.2 31 -0.5 21 21 S 18 30 29.81 1009 10 16 N/A
6:15 pm 18:15 Sunny 74 23.1 31 -0.4 21 21 S 16 26 29.81 1009 10 16 N/A
6:35 pm 18:35 Sunny 73 22.9 31 -0.4 21 21 S 12 19 29.81 1009 10 16 N/A
6:55 pm 18:55 Sunny 73 22.6 31 -0.3 22 22 S 14 22 29.81 1009 10 16 N/A
7:15 pm 19:15 Sunny 72 22.1 32 0.1 23 23 S 10 17 29.82 1010 10 16 N/A
7:35 pm 19:35 Sunny 70 21 32 -0.1 25 25 S 10 17 29.83 1010 10 16 N/A
7:55 pm 19:55 Sunny 67 19.4 32 -0.1 27 27 S 9 15 29.85 1011 10 16 N/A
8:15 pm 20:15 Clear 62 16.8 32 undefined 32 32 S 12 19 29.87 1012 10 16 N/A
8:35 pm 20:35 Clear 61 15.9 32 undefined 34 34 S 10 17 29.89 1012 10 16 N/A
8:55 pm 20:55 Clear 60 15.4 34 0.9 38 38 S 10 17 29.90 1013 10 16 N/A
9:15 pm 21:15 Clear 59 15.1 33 0.7 38 38 S 13 20 29.92 1013 10 16 N/A
9:35 pm 21:35 Clear 61 16.3 32 0.2 34 34 S 12 19 29.90 1013 10 16 N/A
9:55 pm 21:55 Clear 60 15.5 32 0.2 35 35 S 14 22 29.92 1013 10 16 N/A
10:15 pm 22:15 Clear 60 15.5 32 0.1 35 35 S 14 22 29.93 1014 10 16 N/A
10:35 pm 22:35 Clear 60 15.5 32 undefined 35 35 S 14 22 29.93 1014 10 16 N/A
10:55 pm 22:55 Clear 58 14.5 32 undefined 37 37 S 17 28 29.95 1014 10 16 N/A
11:15 pm 23:15 Clear 57 13.9 32 0.1 39 39 S 10 17 29.97 1015 10 16 N/A
11:35 pm 23:35 Clear 56 13.2 32 0.2 41 41 S 7 11 29.98 1015 10 16 N/A
11:55 pm 23:55 Clear 52 11.3 33 0.3 47 47 NW 3 6 30.01 1016 10 16 N/A

Powered by AerisWeather